Date,TemperatureHighF,TemperatureAvgF,TemperatureLowF,DewpointHighF,DewpointAvgF,DewpointLowF,HumidityHigh,HumidityAvg,HumidityLow,PressureMaxIn,PressureMinIn,WindSpeedMaxMPH,WindSpeedAvgMPH,GustSpeedMaxMPH,PrecipitationSumIn
2013-8-1,76,62,49,58,53,47,94,72,47,30.03,29.93,8,1,12,0.00
2013-8-2,80,61,49,58,52,47,94,74,48,29.96,29.85,8,1,13,0.00
2013-8-3,71,57,49,55,51,47,92,80,58,29.95,29.87,12,3,20,0.00
2013-8-4,70,58,51,56,51,48,90,80,60,29.99,29.91,10,2,15,0.00
2013-8-5,74,59,51,56,52,47,89,78,54,30.01,29.89,7,1,10,0.00
2013-8-6,73,59,51,57,52,47,89,79,58,30.02,29.95,11,2,16,0.00
2013-8-7,64,59,56,56,54,52,90,84,74,30.08,30.01,18,3,23,0.00
2013-8-8,73,61,52,58,54,49,93,79,54,30.01,29.91,11,2,17,0.00
2013-8-9,74,60,51,58,53,48,94,79,58,29.97,29.90,9,1,13,0.00
2013-8-10,78,63,56,60,55,52,91,77,54,30.02,29.96,9,1,13,0.00
2013-8-11,75,62,53,60,54,51,94,79,57,30.00,29.90,7,1,12,0.00
2013-8-12,75,60,51,59,53,49,93,80,55,29.98,29.90,8,1,12,0.00
2013-8-13,89,65,48,62,54,47,94,71,35,29.98,29.86,8,1,13,0.00
2013-8-14,85,66,51,60,55,48,91,71,36,29.95,29.86,8,1,13,0.00
2013-8-15,87,68,55,67,60,53,95,77,50,29.93,29.86,8,1,14,0.00
2013-8-16,86,68,56,64,58,51,94,72,43,29.95,29.89,8,1,12,0.00
2013-8-17,82,65,54,62,57,52,91,77,49,29.96,29.82,7,1,12,0.00
2013-8-18,93,68,54,66,58,52,94,73,39,29.87,29.74,7,1,9,0.00
2013-8-19,86,70,60,60,57,54,87,66,40,29.86,29.75,7,2,13,0.00
2013-8-20,75,63,57,57,55,51,91,76,44,29.87,29.78,16,4,25,0.00
2013-8-21,77,62,54,58,54,51,91,76,48,29.92,29.81,8,2,14,0.00
2013-8-22,78,62,53,59,53,50,91,74,49,29.96,29.86,7,1,12,0.00
2013-8-23,76,62,52,60,54,50,91,76,52,29.91,29.76,9,1,12,0.00
2013-8-24,84,65,52,61,56,49,93,74,45,29.86,29.80,8,1,16,0.00
2013-8-25,76,66,58,63,58,55,92,78,60,29.92,29.85,14,2,22,0.00
2013-8-26,80,66,58,61,55,50,86,70,44,29.98,29.87,9,1,13,0.00
2013-8-27,85,65,49,62,55,46,94,72,42,29.88,29.78,7,1,15,0.00
2013-8-28,84,67,54,65,58,52,94,77,52,29.91,29.82,10,1,14,0.00
2013-8-29,85,68,58,65,60,56,93,76,48,30.02,29.91,8,1,14,0.00
2013-8-30,90,70,57,64,59,54,95,71,40,30.01,29.87,7,1,12,0.00
2013-8-31,84,66,54,63,56,52,92,72,44,29.94,29.85,6,1,12,0.00